Content
SEND FEEDBACK

Daily
Averages
Monthly
Summary
United States of America

MERIZO, GUAM


Home > North America > United States > Guam
Elevation: 10 feet     Latitude: 13 14N     Longitude: 144 39E

WEATHER
 
SELECT A DAY
Number of Records: 351,620;   Date Range: 1/1/95 - 10/20/14
 
SHARE

PRINT THIS DATA

[ ← Previous Day ]
WEATHER ALMANAC - MARCH 28, 2014
[ Next Day → ]
[ °C ]   °F
Weather ElementAverageHighLow
Temperature78.7 °F82.6 °F (1:58 pm)75.2 °F (5:03 am)
Dewpoint72.5 °F74.3 °F (8:58 am)70.3 °F (6:58 pm)
Humidity81.5 %94 % (5:03 am)69 % (2:58 pm)
Barometer29.91 in29.97 in (9:08 am)29.83 in (3:58 pm)
Wind Speed9.4 mph13.8 mph (10:19 am)
Wind Gust17.3 mph (1:08 pm)
Weather ElementAverage
Visibility10 mi
Wind DirectionENE (60.6 °)

Weather ElementTotal
Precipitation0.02 in
Cooling Degree Days13.9 (Base 65)
Growing Degree Days28.9 (Base 50)
Averaged from 54 records on March 28, 2014
WEATHER CONDITIONS BREAKOUT
WIND DIRECTION BREAKOUT
WEATHER BY HOUR - MARCH 28, 2014
[ °C ]   °F
Local TimeTemperatureDewpointHumidityBarometerVisibilityWind DirectionWind SpeedGust SpeedPrecipitationEventsConditions
12:13 AM77.0 °F71.6 °F83 %29.94 in10.0 miENE (60°)10.4 mphScattered Clouds
12:58 AM77.0 °F71.6 °F83 %29.91 in10.0 miNE (50°)12.7 mphMostly Cloudy
1:08 AM77.0 °F73.4 °F89 %29.93 in10.0 miNE (50°)10.4 mphMostly Cloudy
1:13 AM77.0 °F73.4 °F89 %29.92 in10.0 miNE (50°)12.7 mphMostly Cloudy
1:23 AM77.0 °F71.6 °F83 %29.92 in10.0 miENE (60°)10.4 mphScattered Clouds
1:58 AM76.5 °F71.6 °F85 %29.89 in10.0 miENE (60°)10.4 mphPartly Cloudy
2:58 AM76.6 °F71.8 °F85 %29.88 in10.0 miENE (60°)8.1 mphPartly Cloudy
3:48 AM77.0 °F73.4 °F89 %29.90 in10.0 miENE (60°)8.1 mphMostly Cloudy
3:58 AM76.8 °F72.5 °F86 %29.87 in10.0 miNE (50°)9.2 mphScattered Clouds
4:23 AM77.0 °F71.6 °F83 %29.90 in10.0 miENE (60°)8.1 mphMostly Cloudy
4:28 AM77.0 °F71.6 °F83 %29.90 in10.0 miENE (70°)8.1 mphMostly Cloudy
4:33 AM77.0 °F71.6 °F83 %29.90 in10.0 miENE (70°)6.9 mphScattered Clouds
4:53 AM77.0 °F73.4 °F89 %29.91 in10.0 miNE (50°)6.9 mphLight Drizzle
4:58 AM75.9 °F73.0 °F91 %29.88 in10.0 miNE (50°)6.9 mph0.00 inLight Drizzle
5:03 AM75.2 °F73.4 °F94 %29.91 in10.0 miNE (50°)6.9 mphPartly Cloudy
5:43 AM77.0 °F73.4 °F89 %29.92 in10.0 miENE (60°)4.6 mphScattered Clouds
5:48 AM77.0 °F73.4 °F89 %29.92 in10.0 miENE (60°)5.8 mphMostly Cloudy
5:53 AM77.0 °F73.4 °F89 %29.92 in10.0 miENE (60°)10.4 mphScattered Clouds
5:58 AM77.0 °F71.6 °F83 %29.89 in10.0 miNE (50°)8.1 mph0.00 inMostly Cloudy
6:03 AM75.2 °F73.4 °F94 %29.93 in10.0 miNE (40°)8.1 mphMostly Cloudy
6:08 AM77.0 °F73.4 °F89 %29.93 in10.0 miNE (40°)6.9 mphMostly Cloudy
6:28 AM77.0 °F73.4 °F89 %29.94 in10.0 miEast (80°)8.1 mphRainLight Rain
6:48 AM75.2 °F71.6 °F89 %29.94 in10.0 miENE (60°)10.4 mphMostly Cloudy
6:58 AM75.6 °F73.2 °F92 %29.91 in10.0 miENE (60°)8.1 mph0.02 inMostly Cloudy
7:58 AM78.4 °F73.4 °F84 %29.94 in10.0 miENE (60°)10.4 mphMostly Cloudy
8:58 AM80.4 °F74.3 °F82 %29.94 in10.0 miNE (40°)12.7 mphScattered Clouds
9:08 AM80.6 °F73.4 °F79 %29.97 in10.0 miNE (40°)12.7 mphMostly Cloudy
9:23 AM78.8 °F73.4 °F83 %29.97 in10.0 miENE (60°)8.1 mphMostly Cloudy
9:58 AM81.0 °F73.2 °F77 %29.94 in10.0 miNE (50°)8.1 mphPartly Cloudy
10:13 AM80.6 °F73.4 °F79 %29.97 in10.0 miNE (50°)10.4 mphMostly Cloudy
10:18 AM80.6 °F73.4 °F79 %29.97 in10.0 miEast (90°)12.7 mphMostly Cloudy
10:19 AM80.6 °F73.4 °F79 %29.97 in10.0 miESE (110°)13.8 mphMostly Cloudy
10:39 AM78.8 °F71.6 °F78 %29.96 in10.0 miSE (130°)5.8 mphMostly Cloudy
10:44 AM80.6 °F71.6 °F74 %29.96 in10.0 miENE (70°)5.8 mphScattered Clouds
10:58 AM80.6 °F73.4 °F79 %29.94 in10.0 miNE (40°)9.2 mphMostly Cloudy
11:03 AM80.6 °F73.4 °F79 %29.96 in10.0 miNE (40°)11.5 mphMostly Cloudy
11:28 AM82.4 °F73.4 °F74 %29.95 in10.0 miENE (60°)13.8 mph16.1 mphMostly Cloudy
11:38 AM80.6 °F73.4 °F79 %29.95 in10.0 miNE (50°)6.9 mphMostly Cloudy
11:58 AM82.2 °F73.6 °F75 %29.91 in10.0 miENE (70°)10.4 mphScattered Clouds
12:58 PM82.2 °F72.9 °F73 %29.88 in10.0 miENE (70°)9.2 mphMostly Cloudy
1:08 PM82.4 °F73.4 °F74 %29.91 in10.0 miEast (80°)11.5 mph17.3 mphMostly Cloudy
1:18 PM82.4 °F73.4 °F74 %29.91 in10.0 miENE (70°)9.2 mph17.3 mphMostly Cloudy
1:58 PM82.6 °F72.5 °F71 %29.86 in10.0 miENE (70°)10.4 mphMostly Cloudy
2:03 PM82.4 °F71.6 °F70 %29.89 in10.0 miEast (90°)10.4 mphScattered Clouds
2:58 PM82.6 °F71.4 °F69 %29.84 in10.0 miENE (70°)11.5 mphPartly Cloudy
3:58 PM82.0 °F71.6 °F71 %29.83 in10.0 miENE (60°)8.1 mphScattered Clouds
4:58 PM80.6 °F70.7 °F72 %29.84 in10.0 miNE (50°)9.2 mphScattered Clouds
5:58 PM79.5 °F70.9 °F75 %29.84 in10.0 miENE (60°)9.2 mphPartly Cloudy
6:58 PM77.5 °F70.3 °F78 %29.86 in10.0 miENE (60°)9.2 mphPartly Cloudy
7:58 PM78.1 °F71.1 °F79 %29.88 in10.0 miENE (60°)10.4 mphPartly Cloudy
8:58 PM78.1 °F70.7 °F78 %29.89 in10.0 miNE (50°)9.2 mphScattered Clouds
9:58 PM77.9 °F71.1 °F79 %29.91 in10.0 miENE (60°)10.4 mphScattered Clouds
10:58 PM77.2 °F70.9 °F81 %29.91 in10.0 miNE (50°)10.4 mphClear
11:58 PM77.5 °F71.1 °F80 %29.91 in10.0 miNE (50°)11.5 mphClear
Hourly data recorded from PGUA, located miles away from Merizo, Guam







STORIES FROM OUR PARTNERS